Main page
METAR-TAF:

METAR-TAF

Airports :

Cascavel Airport

Cascavel, Paraná, Brazil

latitude: 25-00-08S, longitude: 53-30-07W, elevation: 754 m

Current weather observation

The report was made 7 hours and 5 minutes ago, at 23:00 UTC
Wind 14 kt from the East/Northeast
Temperature 18°C
Humidity 52%
Pressure 1019 hPa
Visibility 10 km or more
no clouds below 1500 m and no cumulonimbus

METAR: SBCA 122300Z 06014KT CAVOK 18/08 Q1019

Time: 03:05 (06:05 UTC)


TAF: missing

Weather observations and forecasts of more than 4000 airports (METAR and TAF reports).

The available stations are represented by yellow and red dots on the map.

Hover mouse over dot to see the name of the station.

Then click to see weather observations and forecasts.

To change the map : click on the green buttons with a black cross to zoom in, on the green button with a dash to zoom out, or on the green arrows for adjacent maps.


METAR-TAF: